Orbital Elements
Epoch 2018 June 11.0 TT = JDT 2458280.5
T 2018 May 22.80066 TT Rudenko
q 3.6252069 (2000.0) P Q
n 0.06943707 Peri. 4.76232 +0.50884724 -0.79664268
a 5.8623959 Node 55.02424 +0.77608946 +0.26053479
e 0.3816168 Incl. 23.46271 +0.37250455 +0.54541917
P 14.2
From 871 observations 1989 Dec. 17-2020 May 6, mean residual 0".6.
|